Weather History for Nantucket, MA

Change the Weather History Date:

Thursday, October 7, 2010

  Actual Average Record
Temperature  
Mean Temperature 60 °F -  
Max Temperature 64 °F 64 °F 78 °F (1971)
Min Temperature 57 °F 49 °F 33 °F (1965)
Degree Days  
Heating Degree Days 4    
Growing Degree Days 10 (Base 50)    
Moisture  
Dew Point 50 °F    
Average Humidity 71    
Maximum Humidity 83    
Minimum Humidity 62    
Precipitation  
Precipitation 0.02 in - - ()
Sea Level Pressure  
Sea Level Pressure 29.60 in    
Wind  
Wind Speed 22 mph (WSW)    
Max Wind Speed 32 mph    
Max Gust Speed 44 mph    
Visibility 10 miles    
Events Rain    
Averages and records for this station are not official NWS values.
T = Trace of Precipitation, MM = Missing Value Source: NWS Daily Summary

Daily Weather History Graph

Daily Weather History Graph

Search for Another Location

Airport:

Trip Planner

Search our weather history database for the weather conditions in past years. The results will help you decide how hot, cold, wet, or windy it might be!

Date:

Astronomy

Oct. 07, 2010 Rise Set
Actual Time 6:43 AM EDT 6:12 PM EDT
Civil Twilight 6:15 AM EDT 6:39 PM EDT
Nautical Twilight 5:43 AM EDT 7:11 PM EDT
Astronomical Twilight 5:11 AM EDT 7:43 PM EDT
Moon 6:30 AM EDT (10/7) 5:46 PM EDT (10/7)
Length of Visible Light 12h 24m
Length of Day
11h 29m
Waning Crescent, 0% of the Moon is Illuminated
Oct 7
Waning Crescent
Oct 7
New
Oct 14
First Quarter
Oct 22
Full
Oct 30
Last Quarter

Hourly Weather History & Observations

Time (EDT) Temp. Dew Point Humidity Pressure Visibility Wind Dir Wind Speed Gust Speed Precip Events Conditions
12:53 AM 57.9 °F 48.9 °F 72% 29.66 in 10.0 mi SW 19.6 mph 25.3 mph N/A   Partly Cloudy
1:53 AM 57.9 °F 50.0 °F 75% 29.64 in 10.0 mi SW 17.3 mph 25.3 mph N/A   Scattered Clouds
2:53 AM 59.0 °F 48.9 °F 69% 29.63 in 10.0 mi SW 23.0 mph 29.9 mph N/A   Scattered Clouds
3:53 AM 57.9 °F 46.9 °F 67% 29.62 in 10.0 mi WSW 25.3 mph 32.2 mph N/A   Partly Cloudy
4:53 AM 57.0 °F 50.0 °F 77% 29.62 in 10.0 mi WSW 15.0 mph 23.0 mph 0.00 in   Mostly Cloudy
5:09 AM 57.2 °F 48.2 °F 72% 29.61 in 10.0 mi WSW 21.9 mph - N/A   Mostly Cloudy
5:53 AM 57.0 °F 48.0 °F 72% 29.58 in 10.0 mi WSW 19.6 mph 25.3 mph N/A   Clear
6:53 AM 57.0 °F 50.0 °F 77% 29.58 in 10.0 mi SW 18.4 mph - 0.00 in   Scattered Clouds
7:53 AM 57.9 °F 51.1 °F 78% 29.58 in 10.0 mi SW 25.3 mph 29.9 mph 0.00 in   Mostly Cloudy
8:53 AM 57.0 °F 52.0 °F 83% 29.57 in 10.0 mi SW 27.6 mph 36.8 mph 0.02 in Rain Light Rain
9:53 AM 61.0 °F 52.0 °F 72% 29.57 in 10.0 mi WSW 28.8 mph 38.0 mph 0.00 in   Mostly Cloudy
10:53 AM 60.1 °F 51.1 °F 72% 29.57 in 10.0 mi SW 31.1 mph 43.7 mph N/A   Overcast
11:53 AM 60.1 °F 52.0 °F 75% 29.55 in 10.0 mi WSW 27.6 mph 39.1 mph 0.00 in   Overcast
12:06 PM 60.8 °F 53.6 °F 77% 29.55 in 10.0 mi WSW 21.9 mph 36.8 mph N/A   Overcast
12:53 PM 62.1 °F 53.1 °F 72% 29.54 in 10.0 mi WSW 32.2 mph 41.4 mph N/A   Overcast
1:01 PM 62.6 °F 53.6 °F 72% 29.53 in 10.0 mi WSW 29.9 mph 41.4 mph N/A   Overcast
1:12 PM 62.6 °F 53.6 °F 72% 29.53 in 10.0 mi WSW 29.9 mph 40.3 mph N/A   Overcast
1:53 PM 61.0 °F 54.0 °F 78% 29.52 in 10.0 mi WSW 26.5 mph 39.1 mph N/A   Overcast
2:18 PM 62.6 °F 53.6 °F 72% 29.52 in 10.0 mi West 32.2 mph 42.6 mph N/A   Overcast
2:30 PM 62.6 °F 53.6 °F 72% 29.52 in 10.0 mi West 23.0 mph 32.2 mph N/A   Overcast
2:53 PM 62.1 °F 51.1 °F 67% 29.52 in 10.0 mi West 27.6 mph 40.3 mph N/A   Overcast
3:53 PM 64.0 °F 52.0 °F 65% 29.54 in 10.0 mi West 24.2 mph 35.7 mph N/A   Partly Cloudy
4:53 PM 64.0 °F 53.1 °F 67% 29.56 in 10.0 mi West 15.0 mph 24.2 mph N/A   Partly Cloudy
5:53 PM 63.0 °F 50.0 °F 63% 29.60 in 10.0 mi West 16.1 mph 23.0 mph N/A   Clear
6:53 PM 61.0 °F 48.9 °F 64% 29.64 in 10.0 mi WNW 15.0 mph - N/A   Clear
7:53 PM 60.1 °F 48.0 °F 64% 29.68 in 10.0 mi West 10.4 mph - N/A   Clear
8:53 PM 57.9 °F 46.9 °F 67% 29.70 in 10.0 mi West 8.1 mph - N/A   Clear
9:53 PM 59.0 °F 46.0 °F 62% 29.73 in 10.0 mi West 11.5 mph - N/A   Clear
10:53 PM 59.0 °F 46.0 °F 62% 29.73 in 10.0 mi WNW 13.8 mph 20.7 mph N/A   Clear
11:53 PM 59.0 °F 46.0 °F 62% 29.75 in 10.0 mi West 12.7 mph - N/A   Clear